User: anonymous   Login
Location: DARK SKY Beskydy - Park tmavé oblohy, www.darkskybeskydy.cz
(49.4926°N, 18.5016°E)
Time: 05:44:31
(UTC+01:00)
Language:

Vanguard 1 - Orbit

View from above orbital plane
View from above orbital plane
View from above satellite
View from above satellite

Ground track
Ground track

The orbit data is extracted from the following two-line orbital elements,

1 00005U 58002B   24053.30380619  .00000588  00000-0  73682-3 0  9994
2 00005  34.2592  44.4305 1841179 285.6314  54.9361 10.85205831351338
Epoch (UTC): 22 February 2024 07:17:28
Eccentricity: 0.1841179
inclination: 34.2592°
perigee height: 653 km
apogee height: 3826 km
right ascension of ascending node: 44.4305°
argument of perigee: 285.6314°
revolutions per day: 10.85205831
mean anomaly at epoch: 54.9361°
orbit number at epoch: 35133

The dashed part of the orbit path shows where the satellite is in the earth's shadow,  

DLR